AA6MV Weather Reports


time (UTC)temp
F
wind
direction
speed
knots
gust
knots
rain 1hr
in
rain 24hr
in
rain mn
in
humidity
%
barometer
mb
20260509113013 64 124 0.0 0.0 0.00 0.00 0.00 28 1005.0
20260509104557 65 118 0.0 0.0 0.00 0.00 0.00 28 1005.2
20260509103101 65 121 0.0 0.0 0.00 0.00 0.00 27 1005.1
20260509100012 62 120 0.0 0.0 0.00 0.00 0.00 29 1005.0
20260509094508 60 117 0.0 0.0 0.00 0.00 0.00 31 1005.0
20260509093009 59 114 0.0 0.0 0.00 0.00 0.00 31 1005.1
20260509090040 60 114 0.0 0.0 0.00 0.00 0.00 29 1005.0
20260509084520 60 113 0.0 0.0 0.00 0.00 0.00 28 1005.1
20260509083019 61 113 0.0 0.0 0.00 0.00 0.00 26 1005.2
20260509081511 62 113 0.0 0.0 0.00 0.00 0.00 26 1005.1
20260509080002 62 113 0.0 0.0 0.00 0.00 0.00 26 1005.1
20260509074601 62 113 0.0 0.0 0.00 0.00 0.00 26 1005.1
20260509073028 63 113 0.0 0.0 0.00 0.00 0.00 26 1005.1
20260509071524 63 113 0.0 0.0 0.00 0.00 0.00 24 1005.2
20260509070005 64 113 0.0 0.0 0.00 0.00 0.00 23 1005.2
20260509064612 64 113 0.0 0.0 0.00 0.00 0.00 23 1005.2
20260509063058 65 113 0.0 0.0 0.00 0.00 0.00 22 1005.3
20260509061613 66 113 0.0 0.0 0.00 0.00 0.00 21 1005.3
20260509060027 67 113 0.0 0.0 0.00 0.00 0.00 20 1005.4
20260509054520 68 113 0.0 0.0 0.00 0.00 0.00 20 1005.4
20260509053004 69 113 0.0 0.0 0.00 0.00 0.00 19 1005.4
20260509051503 69 113 0.0 0.0 0.00 0.00 0.00 19 1005.2
20260509050003 69 122 0.0 0.0 0.00 0.00 0.00 19 1005.2
20260509044604 69 122 0.0 0.0 0.00 0.00 0.00 19 1005.2
20260509043039 69 115 0.0 0.0 0.00 0.00 0.00 19 1005.2
20260509041536 70 110 0.0 0.0 0.00 0.00 0.00 19 1005.1
20260509040043 70 118 0.0 0.0 0.00 0.00 0.00 19 1004.9
20260509034529 70 117 0.0 0.0 0.00 0.00 0.00 19 1004.7
20260509033018 71 116 0.0 0.0 0.00 0.00 0.00 19 1004.6
20260509031521 72 116 0.0 0.0 0.00 0.00 0.00 18 1004.4
20260509030014 73 116 0.0 0.0 0.00 0.00 0.00 17 1004.2
20260509024509 75 116 0.0 0.0 0.00 0.00 0.00 17 1004.0
20260509023038 76 114 0.0 0.0 0.00 0.00 0.00 16 1003.8
20260509021528 77 99 0.0 2.6 0.00 0.00 0.00 15 1003.7
20260509020027 79 82 0.0 3.5 0.00 0.00 0.00 15 1003.4
20260509014523 80 83 0.9 7.0 0.00 0.00 0.00 14 1003.3
20260509013014 81 73 2.6 7.8 0.00 0.00 0.00 14 1003.2
20260509010012 83 93 0.0 4.3 0.00 0.00 0.00 12 1003.2
20260509004521 83 63 1.7 12.2 0.00 0.00 0.00 12 1003.2
20260509003103 84 54 1.7 8.7 0.00 0.00 0.00 11 1003.2
20260509001553 85 72 0.0 5.2 0.00 0.00 0.00 12 1003.2
20260509001504 85 90 0.0 5.2 0.00 0.00 0.00 12 1003.2
20260508234549 86 108 0.0 6.1 0.00 0.00 0.00 11 1003.2
20260508233103 85 75 1.7 4.3 0.00 0.00 0.00 11 1003.3
20260508231559 87 86 1.7 6.1 0.00 0.00 0.00 11 1003.5
20260508230113 87 98 0.9 5.2 0.00 0.00 0.00 11 1003.5
20260508224552 86 149 0.0 5.2 0.00 0.00 0.00 11 1003.6
20260508223054 86 99 0.9 6.1 0.00 0.00 0.00 11 1003.7
20260508220049 85 6 0.0 5.2 0.00 0.00 0.00 11 1004.1
20260508214548 87 122 3.5 8.7 0.00 0.00 0.00 12 1004.4
20260508213054 87 72 0.0 7.8 0.00 0.00 0.00 12 1004.4
20260508211556 87 99 0.0 4.3 0.00 0.00 0.00 12 1004.7
20260508210050 87 144 0.0 1.7 0.00 0.00 0.00 12 1004.8
20260508210010 87 152 0.0 1.7 0.00 0.00 0.00 12 1004.9
20260508204546 86 41 0.0 12.2 0.00 0.00 0.00 11 1005.0
20260508203046 86 110 1.7 7.0 0.00 0.00 0.00 12 1005.4
20260508201556 85 122 0.0 7.0 0.00 0.00 0.00 13 1005.5
20260508200041 84 79 1.7 7.8 0.00 0.00 0.00 13 1005.8
20260508194610 84 44 0.0 5.2 0.00 0.00 0.00 12 1005.9
20260508193024 83 79 0.9 6.1 0.00 0.00 0.00 13 1006.0
20260508191532 83 92 0.0 7.0 0.00 0.00 0.00 13 1006.3
20260508190018 81 134 1.7 7.8 0.00 0.00 0.00 15 1006.4
20260508184516 81 96 1.7 10.4 0.00 0.00 0.00 14 1006.6
20260508183016 80 102 2.6 7.8 0.00 0.00 0.00 14 1006.6
20260508181520 80 84 1.7 9.6 0.00 0.00 0.00 15 1006.7
20260508180010 79 84 2.6 7.8 0.00 0.00 0.00 16 1006.9
20260508174507 78 100 0.9 6.1 0.00 0.00 0.00 17 1007.1
20260508173058 77 129 1.7 8.7 0.00 0.00 0.00 18 1007.1
20260508173021 77 83 0.9 8.7 0.00 0.00 0.00 19 1007.1
20260508170051 75 80 2.6 7.0 0.00 0.00 0.00 19 1007.5
20260508164549 74 80 2.6 6.1 0.00 0.00 0.00 20 1007.5
20260508163002 74 77 1.7 7.8 0.00 0.00 0.00 21 1007.6
20260508161618 73 93 2.6 9.6 0.00 0.00 0.00 21 1007.7
20260508160056 72 122 0.9 5.2 0.00 0.00 0.00 23 1007.7
20260508153002 69 87 1.7 5.2 0.00 0.00 0.00 27 1007.8
20260508151608 68 91 2.6 6.1 0.00 0.00 0.00 28 1007.9
20260508151502 68 77 1.7 6.1 0.00 0.00 0.00 29 1007.9
20260508150051 66 73 1.7 4.3 0.00 0.00 0.00 32 1007.9
20260508144549 64 82 0.0 0.0 0.00 0.00 0.00 34 1008.0
20260508143048 63 50 0.0 0.0 0.00 0.00 0.00 36 1007.9
20260508141542 60 75 0.0 0.0 0.00 0.00 0.00 39 1008.0
20260508140041 56 33 0.0 0.0 0.00 0.00 0.00 47 1007.9
20260508134537 52 33 0.0 0.0 0.00 0.00 0.00 55 1007.9
20260508133053 50 33 0.0 0.0 0.00 0.00 0.00 56 1007.8
20260508131532 48 33 0.0 0.0 0.00 0.00 0.00 56 1007.6
20260508130050 47 33 0.0 0.0 0.00 0.00 0.00 54 1007.6
20260508124548 47 38 0.0 0.0 0.00 0.00 0.00 53 1007.4
20260508123057 48 40 0.0 0.0 0.00 0.00 0.00 52 1007.1
20260508121551 49 40 0.0 0.0 0.00 0.00 0.00 50 1006.9
20260508120040 49 40 0.0 0.0 0.00 0.00 0.00 49 1006.9